STARLINK-1095 (44971 NORAD) Tracking and Keplerian Element Data

This shows tracking and keplerian element data for the satellite.

Feedback or suggestion? Click here.




ElementValue
Catalog44971
NameSTARLINK-1095
Epoch Orbit162
Epoch Day93.91667824
Epoch Year2020
RAAN326.4206
Inclination53.0005
Eccentricity0.000143
Argument of Perigee55.8855
Mean Anonmoly115.1138
Mean Motion15.6275491
Decay Rate-0.00018182
L11 44971U 20001BK 20093.91667824 -.00018182 00000-0 -19315-3 0 9999
L22 44971 53.0005 326.4206 0001430 55.8855 115.1138 15.62754910 1626

Live tracking and technical data element details for STARLINK-1095 (NORAD 44971). STARLINK-1095 can be tracked NOW for your location showing map with azimuth and elevation plus other details from your city location.

Track the satellite on the map from your city or location and see movement details for azimuth, elevation, latitude, longitude, range, height, and movement on the map or in text.







IsCatalogInMostPopularTable: catalog: 44971, numindb: 31
Update: records affected: 1



GetName: 44971 STARLINK-1095

Hit Count: updated at: Fri, 03 Apr 2020 22:31:53 GMT